period_start,C,m1,H,J0,J1,J2,J3,J4,J5,JA,JB,JC,JD,JJ,JK,JN,#
2017-02-22 00:03:08,0.76,7.74,1.00,19.18,22.57,26.77,14.95,49.13,1026.38,2041.99,1503.77,1692.36,1953.69,600.14,609.75,13.13,0000 0000 0000 0000 000000
2017-02-22 00:08:10,0.91,7.78,1.00,19.17,22.54,26.76,14.87,49.10,1026.38,2041.99,1497.69,1687.92,1948.67,599.95,609.56,13.18,0000 0000 0000 0000 000000
2017-02-22 00:13:11,0.96,7.83,1.00,19.15,22.54,26.75,14.86,49.21,1026.38,2041.99,1490.83,1682.92,1942.99,599.84,609.52,13.23,0000 0000 0000 0000 000000
2017-02-22 00:18:12,0.96,7.88,1.00,19.13,22.52,26.74,14.93,49.21,1026.38,2042.00,1484.02,1677.97,1937.42,600.08,609.80,13.28,0000 0000 0000 0000 000000
2017-02-22 00:23:14,0.91,7.93,1.00,19.14,22.52,26.73,14.91,49.25,1026.38,2042.00,1477.49,1673.24,1932.10,599.97,609.66,13.33,0000 0000 0000 0000 000000
2017-02-22 00:28:15,0.90,7.97,1.00,19.17,22.50,26.73,14.89,49.31,1026.38,2042.00,1471.19,1668.51,1926.84,600.00,609.65,13.38,0000 0000 0000 0000 000000
2017-02-22 00:33:16,0.92,8.02,1.00,19.17,22.49,26.72,14.91,49.39,1026.38,2042.01,1464.89,1663.87,1921.56,599.89,609.53,13.43,0000 0000 0000 0000 000000
2017-02-22 00:38:17,0.82,8.06,1.00,19.18,22.49,26.73,14.94,49.29,1026.38,2042.00,1458.92,1659.60,1916.77,600.26,609.87,13.48,0000 0000 0000 0000 000000
2017-02-22 00:43:18,0.60,8.10,1.00,19.18,22.47,26.72,14.77,49.22,1026.38,2042.00,1454.52,1656.33,1913.10,599.79,609.49,13.53,0000 0000 0000 0000 000000
2017-02-22 00:48:19,0.56,8.13,1.00,19.17,22.47,26.71,14.88,49.34,1026.37,2042.01,1450.66,1653.46,1909.86,600.32,609.90,13.58,0000 0000 0000 0000 000000
2017-02-22 00:53:21,0.58,8.15,1.00,19.18,22.47,26.70,14.97,49.52,1026.36,2042.06,1446.75,1650.56,1906.58,600.52,610.16,13.63,0000 0000 0000 0000 000000
2017-02-22 00:58:22,0.54,8.18,1.00,19.18,22.47,26.70,14.98,49.52,1026.35,2042.07,1443.08,1647.82,1903.44,600.35,609.90,13.68,0000 0000 0000 0000 000000
2017-02-22 01:03:23,0.59,8.21,1.00,19.18,22.47,26.72,14.85,49.52,1026.19,2042.04,1439.07,1644.82,1900.02,599.47,608.98,13.73,0000 0000 0000 0000 000000
2017-02-22 01:08:24,0.55,8.24,1.00,19.20,22.46,26.72,14.93,49.62,1026.15,2042.06,1435.42,1642.07,1896.95,600.24,609.61,13.78,0000 0000 0000 0000 000000
2017-02-22 01:13:26,0.50,8.27,1.00,19.21,22.46,26.72,14.96,49.53,1026.19,2042.11,1432.02,1639.54,1894.05,600.21,609.62,13.83,0000 0000 0000 0000 000000
2017-02-22 01:18:27,0.54,8.29,1.00,19.20,22.46,26.72,14.86,49.67,1026.35,2042.12,1428.52,1636.89,1891.06,600.19,609.75,13.88,0000 0000 0000 0000 000000
2017-02-22 01:23:28,0.60,8.32,1.00,19.23,22.47,26.72,14.86,49.52,1026.33,2042.16,1424.69,1633.99,1887.72,600.04,609.52,13.93,0000 0000 0000 0000 000000
2017-02-22 01:28:29,0.59,8.35,1.00,19.26,22.47,26.73,14.85,49.60,1026.30,2042.09,1420.79,1631.02,1884.29,599.82,609.25,13.98,0000 0000 0000 0000 000000
2017-02-22 01:33:31,0.54,8.38,1.00,19.24,22.47,26.74,14.81,49.53,1026.19,2042.14,1417.26,1628.33,1881.24,599.77,609.14,14.03,0000 0000 0000 0000 000000
2017-02-22 01:38:32,0.32,8.40,1.00,19.26,22.47,26.74,14.88,49.55,1026.26,2042.09,1414.79,1626.49,1879.06,599.88,609.27,14.08,0000 0000 0000 0000 000000
2017-02-22 01:43:33,0.46,8.42,1.00,19.28,22.47,26.76,14.88,49.59,1026.07,2042.08,1412.01,1624.30,1876.58,599.79,608.97,14.13,0000 0000 0000 0000 000000
2017-02-22 01:48:35,0.38,8.45,1.00,19.31,22.47,26.78,14.89,49.67,1026.18,2042.06,1409.25,1622.21,1874.22,599.97,609.31,14.18,0000 0000 0000 0000 000000
2017-02-22 01:53:36,0.40,8.47,1.00,19.30,22.48,26.78,14.81,49.67,1026.01,2042.03,1406.83,1620.25,1871.98,599.57,608.68,14.23,0000 0000 0000 0000 000000
2017-02-22 01:58:37,0.41,8.49,0.67,19.31,22.49,26.79,14.84,49.70,1025.91,2042.04,1404.21,1618.19,1869.58,599.67,608.76,14.28,0000 0000 0000 0000 000000
2017-02-22 02:03:38,0.40,8.51,0.00,19.35,22.49,26.80,14.88,49.63,1025.90,2042.02,1401.55,1616.19,1867.31,600.50,609.45,14.33,0000 0000 0000 0000 000000
2017-02-22 02:08:40,0.40,8.53,0.00,19.37,22.49,26.79,14.90,49.67,1025.90,2042.01,1399.08,1614.22,1865.03,599.93,608.80,14.38,0000 0000 0000 0000 000000
2017-02-22 02:13:41,0.40,8.55,0.00,19.36,22.49,26.81,14.93,49.60,1025.90,2042.01,1396.49,1612.28,1862.74,599.90,608.78,14.43,0000 0000 0000 0000 000000
2017-02-22 02:18:43,0.58,8.57,0.00,19.37,22.50,26.83,14.89,49.64,1025.90,2042.00,1393.24,1609.65,1859.76,600.35,609.30,14.48,0000 0000 0000 0000 000000
2017-02-22 02:23:44,0.63,8.60,0.00,19.40,22.50,26.84,14.90,49.61,1025.90,2042.00,1389.26,1606.44,1856.16,599.73,608.61,14.53,0000 0000 0000 0000 000000
2017-02-22 02:28:45,0.54,8.63,0.00,19.41,22.52,26.85,14.93,49.54,1025.90,2042.00,1385.84,1603.75,1853.22,600.62,609.28,14.58,0000 0000 0000 0000 000000
2017-02-22 02:33:46,0.59,8.66,0.00,19.42,22.52,26.86,14.84,49.58,1025.91,2042.00,1382.25,1600.89,1850.00,599.76,608.52,14.63,0000 0000 0000 0000 000000
2017-02-22 02:38:47,0.62,8.69,0.00,19.47,22.52,26.87,14.85,49.62,1025.91,2042.00,1378.38,1597.97,1846.50,600.12,608.88,14.68,0000 0000 0000 0000 000000
2017-02-22 02:43:48,0.59,8.72,0.00,19.47,22.54,26.88,14.88,49.67,1025.93,2042.00,1374.72,1595.10,1843.19,599.83,608.69,14.73,0000 0000 0000 0000 000000
2017-02-22 02:48:50,0.53,8.75,0.00,19.49,22.54,26.89,14.95,49.61,1025.91,2042.00,1371.33,1592.51,1840.22,600.26,609.07,14.79,0000 0000 0000 0000 000000
2017-02-22 02:53:51,0.57,8.78,0.00,19.49,22.55,26.90,14.89,49.81,1025.93,2042.00,1367.94,1589.83,1837.18,599.76,608.49,14.84,0000 0000 0000 0000 000000
2017-02-22 02:58:52,0.53,8.80,0.40,19.52,22.57,26.90,14.89,49.67,1025.92,2042.00,1364.59,1587.18,1834.28,600.29,608.92,14.89,0000 0000 0000 0000 000000
2017-02-22 03:03:53,0.50,8.83,1.00,19.56,22.58,26.93,14.91,49.83,1025.90,2042.00,1361.47,1584.77,1831.57,600.37,608.85,14.94,0000 0000 0000 0000 000000
2017-02-22 03:08:55,0.53,8.86,1.00,19.57,22.59,26.95,14.83,49.86,1025.90,2042.00,1358.34,1582.30,1828.73,600.29,608.88,14.99,0000 0000 0000 0000 000000
2017-02-22 03:13:56,0.55,8.89,1.00,19.59,22.61,26.96,14.92,49.96,1025.89,2042.00,1355.01,1579.64,1825.66,600.08,608.52,15.04,0000 0000 0000 0000 000000
2017-02-22 03:18:57,0.53,8.91,1.00,19.60,22.62,26.97,14.82,49.89,1025.89,2041.99,1351.79,1577.12,1822.73,600.00,608.32,15.09,0000 0000 0000 0000 000000
2017-02-22 03:23:59,0.51,8.94,1.00,19.61,22.64,27.00,14.87,49.97,1025.89,2041.98,1348.68,1574.68,1819.97,600.19,608.58,15.14,0000 0000 0000 0000 000000
2017-02-22 03:29:00,0.46,8.96,1.00,19.65,22.66,27.00,14.88,49.92,1025.89,2041.97,1345.78,1572.40,1817.34,600.21,608.45,15.19,0000 0000 0000 0000 000000
2017-02-22 03:34:01,0.48,8.99,1.00,19.71,22.68,27.02,14.86,49.80,1025.89,2041.96,1343.06,1570.16,1814.68,600.11,608.32,15.24,0000 0000 0000 0000 000000
2017-02-22 03:39:03,0.44,9.01,1.00,19.71,22.69,27.03,14.86,49.81,1025.89,2041.78,1340.30,1567.84,1811.98,600.27,608.47,15.29,0000 0000 0000 0000 000000
2017-02-22 03:44:05,0.40,9.03,1.00,19.74,22.71,27.06,14.89,49.79,1025.86,2041.40,1337.58,1565.65,1809.47,600.37,608.54,15.34,0000 0000 0000 0000 000000
2017-02-22 03:49:06,0.42,9.05,1.00,19.76,22.73,27.06,14.88,49.86,1025.77,2041.15,1334.93,1563.54,1807.11,600.31,608.38,15.39,0000 0000 0000 0000 000000
2017-02-22 03:54:07,0.43,9.07,1.00,19.75,22.74,27.08,14.90,49.80,1025.68,2041.04,1332.29,1561.55,1804.81,599.82,607.89,15.44,0000 0000 0000 0000 000000
2017-02-22 03:59:08,0.46,9.10,0.53,19.78,22.76,27.12,14.89,49.82,1025.53,2041.02,1329.67,1559.39,1802.34,599.75,607.56,15.49,0000 0000 0000 0000 000000
2017-02-22 04:04:09,0.46,9.12,0.00,19.80,22.78,27.13,14.90,49.80,1025.59,2041.00,1326.95,1557.25,1799.87,600.30,608.14,15.54,0000 0000 0000 0000 000000
2017-02-22 04:09:11,0.44,9.14,0.00,19.81,22.79,27.14,14.93,49.83,1025.67,2041.00,1324.33,1555.23,1797.54,600.43,608.23,15.59,0000 0000 0000 0000 000000
2017-02-22 04:14:12,0.44,9.17,0.00,19.83,22.82,27.16,14.86,49.80,1025.79,2041.00,1321.77,1553.20,1795.20,599.74,607.62,15.64,0000 0000 0000 0000 000000
2017-02-22 04:19:13,0.44,9.19,0.00,19.88,22.83,27.17,14.87,49.92,1025.74,2041.00,1319.30,1551.19,1792.94,600.40,608.20,15.69,0000 0000 0000 0000 000000
2017-02-22 04:24:14,0.40,9.21,0.00,19.91,22.86,27.19,14.83,49.91,1025.76,2040.99,1316.96,1549.27,1790.76,599.75,607.50,15.74,0000 0000 0000 0000 000000
2017-02-22 04:29:16,0.39,9.23,0.00,19.95,22.88,27.19,14.79,49.88,1025.81,2040.99,1314.66,1547.44,1788.67,599.67,607.28,15.79,0000 0000 0000 0000 000000
2017-02-22 04:34:17,0.40,9.25,0.00,19.96,22.90,27.22,14.91,49.89,1025.76,2040.97,1312.35,1545.60,1786.48,600.38,608.00,15.84,0000 0000 0000 0000 000000
2017-02-22 04:39:18,0.42,9.27,0.00,19.97,22.92,27.25,14.87,49.99,1025.75,2040.95,1309.98,1543.68,1784.32,599.65,607.25,15.89,0000 0000 0000 0000 000000
2017-02-22 04:44:19,0.39,9.29,0.00,19.99,22.94,27.27,14.84,50.02,1025.77,2040.86,1307.67,1541.82,1782.13,599.80,607.33,15.94,0000 0000 0000 0000 000000
2017-02-22 04:49:21,0.35,9.31,0.00,20.01,22.97,27.29,14.78,49.92,1025.78,2040.56,1305.41,1539.97,1779.99,599.85,607.37,15.99,0000 0000 0000 0000 000000
2017-02-22 04:54:22,0.31,9.32,0.00,20.03,22.99,27.32,14.87,49.90,1025.88,2040.12,1303.28,1538.18,1777.87,599.99,607.55,16.04,0000 0000 0000 0000 000000
2017-02-22 04:59:23,0.41,9.34,0.00,20.04,23.02,27.33,14.79,49.91,1025.87,2040.04,1301.02,1536.32,1775.71,599.54,607.06,16.09,0000 0000 0000 0000 000000
2017-02-22 05:04:25,0.39,9.36,0.00,20.07,23.04,27.37,14.83,49.97,1025.84,2040.03,1298.73,1534.65,1773.48,600.19,607.59,16.14,0000 0000 0000 0000 000000
2017-02-22 05:09:26,0.41,9.38,0.00,20.08,23.07,27.39,14.87,49.87,1025.87,2040.00,1296.39,1532.77,1771.29,599.76,607.30,16.19,0000 0000 0000 0000 000000
2017-02-22 05:14:28,0.43,9.41,0.00,20.11,23.09,27.41,14.83,49.88,1025.89,2040.00,1294.07,1530.90,1769.09,600.11,607.69,16.24,0000 0000 0000 0000 000000
2017-02-22 05:19:29,0.41,9.43,0.00,20.14,23.11,27.44,14.90,49.89,1025.89,2040.00,1291.68,1529.02,1766.95,600.26,607.55,16.29,0000 0000 0000 0000 000000
2017-02-22 05:24:30,0.37,9.45,0.00,20.14,23.13,27.45,14.77,49.87,1025.89,2040.00,1289.49,1527.36,1764.92,600.07,607.49,16.34,0000 0000 0000 0000 000000
2017-02-22 05:29:32,0.31,9.46,0.00,20.17,23.15,27.48,14.73,49.87,1025.79,2040.00,1287.70,1525.83,1763.32,599.43,606.66,16.39,0000 0000 0000 0000 000000
2017-02-22 05:34:33,0.28,9.48,0.00,20.19,23.18,27.51,14.78,49.85,1025.68,2039.98,1286.15,1524.56,1761.76,599.66,606.76,16.44,0000 0000 0000 0000 000000
2017-02-22 05:39:35,0.26,9.49,0.00,20.20,23.19,27.54,14.87,49.94,1025.45,2039.96,1284.71,1523.42,1760.45,600.29,607.22,16.49,0000 0000 0000 0000 000000
2017-02-22 05:44:36,0.22,9.50,0.00,20.22,23.22,27.56,14.77,49.82,1025.43,2039.91,1283.33,1522.28,1759.06,599.68,606.51,16.54,0000 0000 0000 0000 000000
2017-02-22 05:49:37,0.24,9.52,0.00,20.24,23.24,27.57,14.79,49.85,1025.56,2039.71,1281.79,1521.01,1757.62,599.88,607.00,16.59,0000 0000 0000 0000 000000
2017-02-22 05:54:39,0.21,9.53,0.00,20.25,23.25,27.58,14.81,49.91,1025.87,2039.30,1280.31,1519.78,1756.14,600.12,607.23,16.64,0000 0000 0000 0000 000000
2017-02-22 05:59:40,0.30,9.54,0.00,20.28,23.27,27.63,14.80,49.92,1025.89,2039.05,1278.70,1518.46,1754.56,599.50,606.67,16.69,0000 0000 0000 0000 000000
2017-02-22 06:04:41,0.25,9.56,0.00,20.29,23.29,27.63,14.82,49.77,1025.88,2039.03,1277.16,1517.14,1753.02,600.01,607.01,16.74,0000 0000 0000 0000 000000
2017-02-22 06:09:42,0.28,9.57,0.00,20.31,23.32,27.64,14.79,49.85,1025.87,2039.01,1275.68,1515.92,1751.64,599.84,606.84,16.79,0000 0000 0000 0000 000000
2017-02-22 06:14:43,0.27,9.58,0.00,20.31,23.33,27.66,14.78,49.84,1025.88,2039.00,1274.25,1514.71,1750.22,599.90,607.03,16.84,0000 0000 0000 0000 000000
2017-02-22 06:19:45,0.29,9.59,0.00,20.31,23.35,27.68,14.92,49.85,1025.82,2039.00,1272.70,1513.48,1748.72,600.39,607.35,16.89,0000 0000 0000 0000 000000
2017-02-22 06:24:46,0.23,9.61,0.00,20.33,23.37,27.71,14.78,49.92,1025.85,2038.98,1271.40,1512.32,1747.39,599.71,606.92,16.94,0000 0000 0000 0000 000000
2017-02-22 06:29:47,0.24,9.62,0.00,20.33,23.38,27.72,14.92,49.97,1025.83,2038.98,1269.94,1511.21,1745.98,600.16,606.88,16.99,0000 0000 0000 0000 000000
2017-02-22 06:34:48,0.26,9.63,0.00,20.34,23.39,27.75,14.78,49.89,1025.84,2038.98,1268.65,1510.14,1744.71,599.80,606.71,17.04,0000 0000 0000 0000 000000
2017-02-22 06:39:50,0.23,9.65,0.00,20.34,23.42,27.75,14.77,49.96,1025.88,2038.95,1267.41,1509.02,1743.52,599.86,606.78,17.09,0000 0000 0000 0000 000000
2017-02-22 06:44:51,0.28,9.66,0.00,20.34,23.43,27.77,14.85,49.77,1025.85,2038.87,1265.97,1507.81,1741.97,600.19,607.11,17.14,0000 0000 0000 0000 000000
2017-02-22 06:49:52,0.24,9.68,0.00,20.34,23.45,27.76,14.82,49.84,1025.84,2038.48,1264.25,1506.37,1740.26,600.36,607.19,17.19,0000 0000 0000 0000 000000
2017-02-22 06:54:54,0.45,9.69,0.00,20.34,23.46,27.78,14.75,49.73,1025.50,2038.22,1261.54,1504.62,1738.10,599.91,606.61,17.24,0000 0000 0000 0000 000000
2017-02-22 06:59:55,0.43,9.71,0.00,20.34,23.47,27.80,14.87,49.80,1025.73,2038.04,1259.16,1502.83,1736.10,600.18,607.02,17.29,0000 0000 0000 0000 000000
2017-02-22 07:04:57,0.33,9.74,0.00,20.35,23.47,27.80,14.80,49.76,1025.62,2038.01,1256.98,1501.16,1734.17,599.95,606.69,17.34,0000 0000 0000 0000 000000
2017-02-22 07:09:58,0.37,9.75,0.00,20.35,23.49,27.82,14.86,49.67,1025.56,2038.00,1255.05,1499.63,1732.39,599.98,606.67,17.39,0000 0000 0000 0000 000000
2017-02-22 07:15:00,0.31,9.77,0.00,20.36,23.50,27.82,14.85,49.71,1025.81,2038.00,1253.14,1498.19,1730.66,600.31,607.08,17.45,0000 0000 0000 0000 000000
2017-02-22 07:20:01,0.29,9.78,0.00,20.34,23.50,27.82,14.81,49.67,1025.89,2038.00,1251.65,1496.90,1729.22,600.09,607.02,17.50,0000 0000 0000 0000 000000
2017-02-22 07:25:03,0.34,9.80,0.00,20.34,23.50,27.83,14.84,49.54,1025.89,2038.00,1249.89,1495.53,1727.54,600.03,606.98,17.55,0000 0000 0000 0000 000000
2017-02-22 07:30:04,0.34,9.82,0.00,20.34,23.52,27.83,14.83,49.48,1025.89,2038.00,1248.00,1493.93,1725.87,600.12,607.02,17.60,0000 0000 0000 0000 000000
2017-02-22 07:35:05,0.36,9.84,0.00,20.32,23.52,27.83,14.85,49.65,1025.89,2038.00,1246.02,1492.43,1724.09,599.91,606.88,17.65,0000 0000 0000 0000 000000
2017-02-22 07:40:06,0.35,9.86,0.00,20.32,23.52,27.83,14.73,49.54,1025.89,2038.00,1244.13,1490.90,1722.36,599.79,606.89,17.70,0000 0000 0000 0000 000000
2017-02-22 07:45:07,0.32,9.87,0.00,20.32,23.52,27.85,14.92,49.71,1025.89,2037.99,1242.32,1489.45,1720.64,600.12,607.04,17.75,0000 0000 0000 0000 000000
2017-02-22 07:50:09,0.35,9.89,0.00,20.29,23.52,27.82,14.81,49.55,1025.89,2037.98,1240.53,1487.93,1718.88,600.07,607.18,17.80,0000 0000 0000 0000 000000
2017-02-22 07:55:10,0.35,9.91,0.00,20.28,23.52,27.81,14.81,49.69,1025.90,2037.99,1238.69,1486.51,1717.17,600.06,607.19,17.85,0000 0000 0000 0000 000000
2017-02-22 08:00:12,0.34,9.92,0.00,20.26,23.52,27.80,14.89,49.72,1025.90,2037.98,1236.82,1484.99,1715.39,600.15,607.12,17.90,0000 0000 0000 0000 000000
2017-02-22 08:05:13,0.35,9.94,0.00,20.25,23.51,27.79,14.86,49.73,1025.90,2037.98,1234.99,1483.56,1713.68,600.12,607.18,17.95,0000 0000 0000 0000 000000
2017-02-22 08:10:15,0.31,9.96,0.00,20.25,23.50,27.80,14.77,49.68,1025.90,2037.98,1233.18,1482.09,1712.03,599.67,606.78,18.00,0000 0000 0000 0000 000000
2017-02-22 08:15:16,0.35,9.98,0.00,20.25,23.50,27.77,14.85,49.67,1025.91,2037.96,1231.43,1480.67,1710.42,600.20,607.31,18.05,0000 0000 0000 0000 000000
2017-02-22 08:20:17,0.32,9.99,0.00,20.24,23.50,27.75,14.87,49.74,1025.90,2037.98,1229.73,1479.40,1708.82,600.09,607.13,18.10,0000 0000 0000 0000 000000
2017-02-22 08:25:18,0.28,10.01,0.00,20.25,23.50,27.76,14.83,49.69,1025.90,2037.98,1228.08,1478.03,1707.32,600.00,607.23,18.15,0000 0000 0000 0000 000000
2017-02-22 08:30:19,0.35,10.02,0.00,20.25,23.50,27.76,14.77,49.73,1025.89,2037.97,1226.47,1476.72,1705.75,599.56,606.63,18.20,0000 0000 0000 0000 000000
2017-02-22 08:35:21,0.30,10.04,0.00,20.23,23.49,27.75,14.75,49.66,1025.91,2037.99,1224.84,1475.46,1704.32,599.81,607.05,18.25,0000 0000 0000 0000 000000
2017-02-22 08:40:22,0.28,10.06,0.00,20.23,23.47,27.76,14.85,49.79,1025.90,2037.98,1223.28,1474.26,1702.84,600.30,607.29,18.30,0000 0000 0000 0000 000000
2017-02-22 08:45:23,0.29,10.07,0.00,20.21,23.47,27.74,14.88,49.67,1025.90,2037.99,1221.69,1473.01,1701.47,600.02,607.28,18.35,0000 0000 0000 0000 000000
2017-02-22 08:50:25,0.28,10.08,0.00,20.20,23.47,27.71,14.91,49.79,1025.90,2037.98,1220.16,1471.83,1699.95,600.12,607.26,18.40,0000 0000 0000 0000 000000
2017-02-22 08:55:26,0.30,10.10,0.00,20.21,23.47,27.72,14.94,49.81,1025.90,2037.98,1218.63,1470.74,1698.59,600.16,607.37,18.45,0000 0000 0000 0000 000000
2017-02-22 09:00:27,0.26,10.11,0.00,20.18,23.45,27.71,14.72,49.63,1025.90,2037.98,1217.19,1469.60,1697.20,599.50,606.81,18.50,0000 0000 0000 0000 000000
2017-02-22 09:05:29,0.30,10.13,0.00,20.17,23.45,27.71,14.92,49.77,1025.91,2037.98,1215.70,1468.48,1695.78,600.38,607.64,18.55,0000 0000 0000 0000 000000
2017-02-22 09:10:30,0.25,10.14,0.00,20.15,23.45,27.69,14.80,49.67,1025.90,2037.99,1214.42,1467.32,1694.45,599.99,607.31,18.60,0000 0000 0000 0000 000000
2017-02-22 09:15:31,0.26,10.16,0.00,20.15,23.44,27.67,14.90,49.70,1025.92,2037.99,1212.94,1466.16,1693.11,600.04,607.33,18.65,0000 0000 0000 0000 000000
2017-02-22 09:20:32,0.28,10.17,0.00,20.14,23.43,27.68,14.80,49.57,1025.93,2037.99,1211.57,1465.02,1691.78,599.86,607.27,18.70,0000 0000 0000 0000 000000
2017-02-22 09:25:34,0.26,10.18,0.00,20.11,23.42,27.65,14.81,49.67,1025.95,2037.99,1210.11,1463.91,1690.51,599.89,607.38,18.75,0000 0000 0000 0000 000000
2017-02-22 09:30:35,0.33,10.20,0.00,20.11,23.42,27.64,14.78,49.54,1025.92,2037.99,1208.63,1462.66,1688.99,599.84,607.22,18.80,0000 0000 0000 0000 000000
2017-02-22 09:35:37,0.34,10.21,0.00,20.10,23.40,27.63,14.87,49.70,1025.90,2037.99,1206.79,1461.28,1687.36,599.78,607.29,18.85,0000 0000 0000 0000 000000
2017-02-22 09:40:38,0.27,10.23,0.00,20.08,23.40,27.63,14.90,49.58,1025.90,2037.99,1205.25,1460.04,1685.88,599.96,607.29,18.90,0000 0000 0000 0000 000000
2017-02-22 09:45:39,0.30,10.24,0.00,20.07,23.39,27.61,14.85,49.57,1025.90,2037.99,1203.79,1458.88,1684.55,599.92,607.45,18.95,0000 0000 0000 0000 000000
2017-02-22 09:50:41,0.29,10.26,0.00,20.06,23.37,27.58,14.81,49.66,1025.89,2037.99,1202.28,1457.71,1683.13,599.60,607.26,19.00,0000 0000 0000 0000 000000
2017-02-22 09:55:42,0.31,10.27,0.00,20.03,23.37,27.57,14.90,49.68,1025.89,2037.99,1200.75,1456.55,1681.75,600.16,607.71,19.05,0000 0000 0000 0000 000000
2017-02-22 10:00:43,0.26,10.29,0.00,20.02,23.37,27.58,14.85,49.58,1025.90,2038.00,1199.40,1455.46,1680.51,600.06,607.78,19.10,0000 0000 0000 0000 000000
2017-02-22 10:05:45,0.27,10.30,0.00,20.00,23.35,27.56,14.89,49.70,1025.90,2038.00,1197.85,1454.26,1679.12,600.12,607.79,19.15,0000 0000 0000 0000 000000
2017-02-22 10:10:46,0.28,10.32,0.00,19.97,23.35,27.53,14.78,49.72,1025.90,2038.00,1196.42,1453.13,1677.72,599.90,607.54,19.20,0000 0000 0000 0000 000000
2017-02-22 10:15:47,0.31,10.33,0.00,19.96,23.33,27.52,14.85,49.80,1025.90,2038.01,1194.81,1451.90,1676.43,599.94,607.57,19.25,0000 0000 0000 0000 000000
2017-02-22 10:20:49,0.29,10.35,0.00,19.95,23.32,27.52,14.86,49.77,1025.90,2038.01,1193.33,1450.69,1674.97,600.06,607.80,19.30,0000 0000 0000 0000 000000
2017-02-22 10:25:50,0.33,10.36,0.00,19.92,23.31,27.51,14.85,49.72,1025.90,2038.02,1191.71,1449.50,1673.59,600.14,607.87,19.35,0000 0000 0000 0000 000000
2017-02-22 10:30:51,0.31,10.38,0.00,19.91,23.29,27.48,14.83,49.75,1025.90,2038.04,1190.00,1448.16,1671.97,599.99,607.90,19.40,0000 0000 0000 0000 000000
2017-02-22 10:35:52,0.33,10.39,0.00,19.91,23.28,27.47,14.86,49.76,1025.85,2038.11,1188.47,1446.95,1670.58,600.07,607.74,19.45,0000 0000 0000 0000 000000
2017-02-22 10:40:54,0.28,10.41,0.00,19.88,23.27,27.45,14.88,49.79,1025.82,2038.15,1186.98,1445.78,1669.27,599.84,607.64,19.50,0000 0000 0000 0000 000000
2017-02-22 10:45:56,0.35,10.43,0.00,19.84,23.26,27.44,14.83,49.77,1025.70,2038.31,1185.52,1444.58,1667.81,600.15,608.07,19.55,0000 0000 0000 0000 000000
2017-02-22 10:50:57,0.30,10.44,0.00,19.84,23.24,27.42,14.97,49.94,1025.67,2038.39,1184.00,1443.41,1666.48,600.33,608.16,19.60,0000 0000 0000 0000 000000
2017-02-22 10:55:58,0.30,10.46,0.00,19.83,23.23,27.43,14.88,49.98,1025.76,2038.56,1182.55,1442.29,1665.12,600.32,608.28,19.65,0000 0000 0000 0000 000000
2017-02-22 11:01:00,0.28,10.48,0.00,19.83,23.22,27.39,14.80,49.92,1025.50,2038.80,1181.18,1441.21,1663.84,599.90,607.73,19.70,0000 0000 0000 0000 000000
2017-02-22 11:06:01,0.28,10.49,0.00,19.79,23.21,27.38,14.91,49.93,1025.44,2038.85,1179.83,1440.16,1662.68,600.31,608.19,19.75,0000 0000 0000 0000 000000
2017-02-22 11:11:02,0.28,10.50,0.00,19.77,23.19,27.37,14.79,49.97,1025.43,2038.92,1178.53,1439.10,1661.50,599.98,607.87,19.80,0000 0000 0000 0000 000000
2017-02-22 11:16:03,0.26,10.52,0.00,19.75,23.18,27.34,14.78,49.83,1025.44,2038.93,1177.13,1437.95,1660.20,599.63,607.54,19.85,0000 0000 0000 0000 000000
2017-02-22 11:21:04,0.28,10.53,0.00,19.76,23.17,27.34,14.83,49.92,1025.50,2038.96,1175.76,1436.90,1658.94,599.97,607.87,19.90,0000 0000 0000 0000 000000
2017-02-22 11:26:06,0.25,10.54,0.00,19.75,23.15,27.34,14.79,49.96,1025.46,2038.98,1174.49,1435.93,1657.79,599.83,607.76,19.95,0000 0000 0000 0000 000000
2017-02-22 11:31:07,0.31,10.56,0.00,19.73,23.14,27.31,14.93,50.03,1025.62,2038.98,1173.04,1434.78,1656.57,600.07,608.10,20.00,0000 0000 0000 0000 000000
2017-02-22 11:36:08,0.35,10.58,0.00,19.73,23.12,27.29,14.91,50.07,1025.49,2038.99,1171.31,1433.47,1654.98,600.12,607.99,20.05,0000 0000 0000 0000 000000
2017-02-22 11:41:09,0.38,10.60,0.00,19.71,23.12,27.30,14.88,50.08,1025.57,2038.99,1169.36,1431.91,1653.22,600.27,608.30,20.10,0000 0000 0000 0000 000000
2017-02-22 11:46:11,0.38,10.61,0.00,19.67,23.10,27.26,14.81,50.05,1025.45,2038.99,1167.48,1430.44,1651.47,599.75,607.84,20.15,0000 0000 0000 0000 000000
2017-02-22 11:51:12,0.35,10.63,0.00,19.66,23.09,27.25,14.87,50.01,1025.46,2039.00,1165.70,1429.02,1649.83,600.04,608.17,20.20,0000 0000 0000 0000 000000
2017-02-22 11:56:13,0.29,10.65,0.00,19.64,23.07,27.25,14.90,50.11,1025.43,2039.01,1164.21,1427.83,1648.53,600.11,608.13,20.25,0000 0000 0000 0000 000000
2017-02-22 12:01:14,0.37,10.66,0.00,19.66,23.06,27.23,14.85,50.23,1025.45,2039.01,1162.51,1426.53,1646.97,599.72,607.80,20.30,0000 0000 0000 0000 000000
2017-02-22 12:06:15,0.31,10.68,0.00,19.62,23.04,27.22,14.83,50.16,1025.42,2039.05,1160.91,1425.33,1645.54,599.87,607.99,20.35,0000 0000 0000 0000 000000
2017-02-22 12:11:17,0.29,10.70,0.00,19.62,23.04,27.20,14.81,50.18,1025.45,2039.17,1159.53,1424.20,1644.25,599.86,608.07,20.40,0000 0000 0000 0000 000000
2017-02-22 12:16:18,0.25,10.71,0.00,19.59,23.02,27.18,14.84,50.08,1025.49,2039.20,1158.22,1423.14,1642.94,599.90,608.16,20.45,0000 0000 0000 0000 000000
2017-02-22 12:21:20,0.32,10.73,0.00,19.57,23.02,27.17,14.95,50.27,1025.60,2039.38,1156.89,1422.06,1641.68,599.92,608.30,20.50,0000 0000 0000 0000 000000
2017-02-22 12:26:21,0.33,10.74,0.00,19.59,23.00,27.18,14.78,50.03,1025.45,2039.66,1155.63,1421.03,1640.51,599.83,608.04,20.55,0000 0000 0000 0000 000000
2017-02-22 12:31:22,0.27,10.76,0.00,19.58,22.99,27.15,14.94,50.12,1025.41,2039.85,1154.31,1419.99,1639.32,600.45,608.72,20.60,0000 0000 0000 0000 000000
2017-02-22 12:36:24,0.27,10.77,0.00,19.56,22.98,27.13,14.84,50.14,1025.41,2039.92,1152.96,1418.93,1638.00,599.79,608.09,20.65,0000 0000 0000 0000 000000
2017-02-22 12:41:25,0.30,10.78,0.00,19.53,22.97,27.16,14.89,50.08,1025.41,2039.92,1151.67,1417.89,1636.75,600.10,608.41,20.70,0000 0000 0000 0000 000000
2017-02-22 12:46:26,0.26,10.80,0.00,19.52,22.95,27.14,14.88,50.13,1025.41,2039.94,1150.59,1416.89,1635.55,599.69,608.08,20.75,0000 0000 0000 0000 000000
2017-02-22 12:51:28,0.27,10.81,0.00,19.50,22.94,27.12,14.85,49.92,1025.41,2039.97,1149.29,1415.84,1634.31,599.79,608.11,20.80,0000 0000 0000 0000 000000
2017-02-22 12:56:29,0.32,10.83,0.00,19.52,22.92,27.11,14.87,49.99,1025.41,2039.97,1147.78,1414.70,1632.96,599.86,608.27,20.85,0000 0000 0000 0000 000000